Wind_Speed
2 3 3 4 3 3 3 2 1 2 2 2 3 4 5 5 5 5 5 5 4 4 3 3 4 4 5 6 6 6 6 6 6 6 6 7 8 9 9 10 11 11 11 11 12 14 16 17 18 18 18 18 19 19 19 19 19 19 21 23 24 24 22 20 19 18 19 20 20 21 20 18 16 16
2 2 3 3 3 3 3 3 3 2 2 3 3 4 5 5 5 5 6 5 4 4 3 3 4 5 6 6 7 7 7 7 7 8 8 9 10 11 12 12 13 13 14 14 15 16 16 17 17 18 18 18 18 18 17 17 17 18 20 22 24 25 24 20 18 17 18 18 18 18 18 17 15 15
2 2 3 3 3 3 4 4 4 3 3 3 4 4 5 6 6 6 6 6 5 5 5 5 7 6 7 8 8 8 9 9 9 10 10 11 12 14 15 15 16 16 16 15 16 16 17 17 17 17 17 17 17 16 16 15 16 17 19 21 24 26 26 23 19 17 17 17 17 16 17 16 15 14
3 4 4 4 4 3 4 4 4 4 5 5 5 5 5 6 6 6 6 7 7 7 6 7 8 7 8 9 9 10 11 12 12 12 13 13 14 15 17 17 18 19 18 17 16 17 17 17 16 16 15 15 15 15 14 15 15 17 18 21 23 25 27 26 21 17 16 16 16 15 15 15 14 13
5 5 5 5 4 4 4 5 5 5 5 5 5 5 6 6 7 7 7 8 8 8 8 9 8 8 10 10 11 12 12 13 15 15 15 15 14 14 15 17 17 19 20 20 19 17 16 15 14 13 13 13 13 13 14 14 15 16 18 20 22 24 27 27 24 19 15 15 15 14 13 14 13 12
7 7 6 6 5 5 6 5 6 6 6 6 6 6 6 6 7 8 8 9 9 9 10 10 10 10 11 11 12 13 13 13 14 15 15 15 14 13 13 13 15 17 19 21 20 17 14 13 12 12 12 12 13 13 14 15 16 17 18 20 22 23 25 27 26 22 16 14 14 13 12 12 12 11
9 8 7 7 6 6 6 6 7 7 7 7 7 7 7 7 8 8 9 9 10 10 11 11 11 11 12 12 12 13 13 13 14 14 15 15 15 15 14 13 14 15 17 19 19 16 12 11 11 12 13 13 14 15 16 17 18 19 20 21 22 23 24 26 27 24 18 14 14 13 11 10 10 10
10 10 9 8 8 7 7 7 7 8 8 8 8 8 9 9 9 9 10 10 11 11 11 11 11 12 12 13 13 13 13 14 14 14 15 15 16 17 17 16 14 14 15 16 17 15 13 11 11 12 14 15 17 18 18 19 20 21 22 22 23 23 24 24 26 25 20 15 13 12 11 9 9 8
11 11 10 9 9 9 8 8 8 8 9 10 10 10 10 10 10 10 10 11 11 11 11 11 11 12 12 13 13 14 14 14 15 15 15 15 16 18 18 16 14 12 12 14 15 16 15 15 14 14 15 17 19 21 21 22 22 22 23 23 23 23 23 23 24 24 22 17 13 12 10 8 7 8
12 12 11 11 11 10 10 9 9 9 9 10 11 12 12 12 12 12 12 11 11 11 12 12 12 12 13 14 14 15 15 15 15 14 14 15 17 17 16 14 12 11 11 13 15 17 18 19 19 20 20 20 22 22 22 22 23 23 22 22 22 22 22 22 23 23 22 18 14 12 10 8 7 7
12 12 13 13 12 12 12 11 10 10 10 10 11 12 13 13 14 14 13 13 13 13 12 12 12 13 13 14 14 14 14 14 14 13 13 14 15 15 14 13 13 13 14 14 16 17 18 19 21 22 22 23 23 23 22 22 22 21 20 20 20 20 21 21 22 23 22 19 14 12 11 9 7 6
12 13 13 14 14 14 13 13 12 12 12 11 12 12 12 13 14 14 14 14 14 14 14 13 13 13 13 14 14 14 13 12 12 12 12 13 14 14 14 15 15 16 16 16 15 14 15 16 18 19 21 21 22 23 23 22 21 20 20 19 19 19 20 20 21 22 22 19 15 12 11 10 8 7
13 13 13 14 15 15 15 15 14 14 14 14 13 13 12 12 13 13 14 14 15 15 15 14 14 13 13 13 13 12 11 10 11 12 13 13 14 15 16 17 16 15 14 15 14 14 14 14 15 16 18 18 20 22 23 23 22 21 20 20 19 19 20 20 21 22 21 19 16 13 11 10 9 8
13 13 14 14 15 15 16 16 17 16 16 15 15 14 14 14 13 13 13 14 14 14 14 14 13 13 14 13 13 12 11 11 12 13 15 15 16 17 17 17 15 12 12 13 15 16 16 14 14 14 15 17 19 21 21 22 22 22 21 20 19 19 19 19 20 21 21 19 16 14 12 11 11 10
13 14 14 14 15 15 16 17 17 18 17 17 17 16 16 16 15 15 15 14 14 14 14 14 14 14 14 14 14 14 13 13 13 15 16 16 16 15 14 14 14 13 13 14 16 18 17 15 15 15 14 15 18 20 21 22 22 22 21 20 19 19 19 19 19 20 20 18 16 14 13 12 12 11
13 14 14 15 15 15 15 16 17 17 17 18 18 18 18 17 17 16 16 16 16 16 16 16 16 16 16 16 16 16 16 15 14 14 15 15 14 13 12 13 14 14 14 14 15 17 18 15 14 15 15 15 17 18 20 22 22 22 21 20 19 18 18 18 18 19 19 17 15 14 13 13 13 12
13 14 15 15 15 15 16 16 16 16 17 17 18 18 18 17 17 17 17 17 17 17 17 17 17 17 17 17 17 16 16 16 15 15 14 14 13 13 13 14 15 15 15 14 14 17 17 15 14 14 14 15 17 18 19 21 21 22 22 20 19 18 18 18 18 19 18 17 15 14 13 13 13 14
15 15 15 15 16 16 17 16 17 17 17 17 17 17 17 17 16 16 16 16 16 16 16 16 17 17 17 17 17 16 15 15 15 14 14 14 14 14 15 15 16 17 17 16 15 17 18 15 14 13 12 13 17 19 20 20 21 22 22 21 20 19 18 18 18 19 18 16 15 14 13 13 14 15
17 17 17 17 17 17 17 17 18 18 18 18 17 17 17 17 16 16 16 16 16 15 15 15 16 16 16 16 16 16 15 15 15 15 15 16 15 15 16 17 18 19 19 19 17 18 20 17 14 14 13 13 16 19 21 21 21 22 22 22 21 19 18 18 18 18 18 16 14 14 13 13 14 15
20 20 19 19 18 18 18 19 19 19 20 20 19 18 18 18 17 16 17 18 17 15 15 15 15 16 16 16 16 15 15 15 16 16 16 18 17 16 17 19 19 20 21 21 19 18 20 20 17 16 17 16 16 19 21 22 22 22 22 22 22 20 19 18 17 17 17 16 14 14 13 13 14 14
22 22 21 21 20 19 19 20 21 22 22 22 21 20 20 20 18 18 19 20 19 17 16 16 16 16 16 16 16 16 16 17 18 17 18 20 20 18 18 19 20 21 22 23 22 19 20 22 20 19 19 19 18 19 21 23 23 23 22 22 22 21 20 18 17 16 16 15 14 14 14 14 14 14
25 25 24 24 23 22 22 22 23 24 24 24 23 23 23 22 20 19 21 22 22 21 19 17 16 16 16 17 17 17 18 19 20 20 21 22 22 20 20 20 20 20 22 25 25 22 22 24 24 22 22 22 21 21 22 23 24 25 24 22 21 21 20 19 18 17 16 15 14 14 14 15 15 15
28 28 28 27 27 25 25 26 26 26 26 26 26 26 26 24 21 22 25 26 25 24 21 19 18 17 17 18 18 18 19 20 22 23 24 25 24 23 22 22 22 21 23 26 27 24 24 26 27 27 26 25 24 24 23 23 24 25 25 23 21 21 21 20 18 17 16 16 15 15 15 15 16 16
29 29 29 30 30 29 29 29 29 29 29 28 28 29 29 25 23 25 28 28 26 25 23 22 20 19 19 19 19 20 21 23 24 26 27 28 27 26 24 24 24 23 25 28 28 26 26 28 29 30 29 28 28 26 25 25 24 25 26 25 22 21 21 20 19 17 16 16 16 16 16 17 17 17
32 31 31 31 32 33 33 33 33 33 32 32 32 32 29 26 26 28 29 28 28 27 24 23 21 20 20 20 21 22 24 25 27 29 29 30 29 29 28 28 27 26 27 29 29 28 29 30 31 32 32 32 31 30 28 27 26 25 26 26 24 21 21 21 21 19 18 17 17 17 17 18 18 19
34 35 35 35 35 35 34 34 34 34 34 35 35 33 30 28 28 29 29 29 28 27 25 23 21 20 21 22 23 25 26 28 30 31 31 31 30 29 29 29 28 28 28 30 30 30 30 32 33 34 34 34 34 34 33 31 28 25 26 26 24 22 20 20 21 21 20 19 18 18 18 19 19 20
34 36 38 38 37 35 34 34 35 35 35 36 35 33 32 30 30 30 28 27 27 25 24 22 20 20 21 22 24 26 28 30 31 31 31 30 30 29 28 27 27 27 28 29 29 29 29 30 32 33 34 34 33 33 33 33 29 26 25 25 24 23 21 19 19 20 20 20 20 19 19 19 20 21
35 35 36 37 36 35 34 34 34 34 35 35 34 33 33 32 31 30 27 25 24 23 21 20 20 21 22 23 25 27 29 29 29 29 29 28 28 27 26 26 25 25 25 26 26 26 26 26 28 29 31 31 31 31 31 31 29 26 25 24 23 23 22 21 20 19 19 20 20 20 20 20 21 22
36 36 36 37 36 35 35 34 33 34 36 35 34 33 33 33 32 30 26 24 24 22 21 22 22 22 23 24 25 27 28 27 26 26 25 24 23 22 21 20 20 20 21 22 23 24 24 24 25 27 28 29 30 30 30 30 29 27 25 24 23 22 23 23 23 22 22 21 20 21 22 22 22 23
37 36 36 37 37 36 35 33 33 34 36 37 36 34 33 32 31 29 28 26 25 24 23 24 24 23 24 25 25 26 25 24 23 23 22 21 21 21 19 17 16 17 19 20 21 23 24 25 26 27 28 29 30 30 31 30 30 28 27 25 23 22 23 24 24 24 26 25 22 22 23 24 25 26
38 36 36 37 37 36 35 33 33 34 35 37 37 34 31 30 30 30 30 29 27 25 25 24 24 24 25 25 25 24 23 22 22 22 22 21 21 22 21 19 18 18 19 19 20 21 22 23 24 25 26 28 29 30 30 29 29 30 29 28 25 23 24 25 25 25 26 27 26 24 25 26 27 29
41 39 37 37 37 37 35 34 34 35 35 34 33 31 30 30 31 33 33 31 28 27 26 25 25 25 25 25 25 24 23 21 22 23 22 21 21 22 21 20 19 20 20 20 21 21 21 21 22 23 24 25 27 29 30 29 29 30 30 30 28 25 23 25 27 27 28 28 27 25 25 27 28 30
41 40 39 38 38 38 38 38 37 36 35 32 29 28 29 30 33 35 36 33 31 29 28 26 25 25 25 25 25 24 22 21 22 23 22 22 22 22 22 21 21 22 22 22 23 24 24 23 23 24 24 24 25 26 28 29 29 30 31 31 31 28 25 25 27 28 30 31 30 27 27 28 30 31
39 39 39 39 39 40 41 41 40 38 36 34 31 30 30 32 34 37 37 36 34 32 29 27 25 25 24 24 24 23 22 21 22 23 23 23 23 23 23 23 23 24 24 24 25 26 27 26 26 26 26 26 25 25 27 28 29 30 31 32 32 32 29 28 27 28 29 31 32 30 29 31 33 34
38 38 40 39 39 40 41 41 40 39 39 37 35 33 31 32 34 35 36 36 36 34 31 27 25 24 23 23 23 23 22 22 23 24 24 24 25 25 25 25 25 25 25 25 26 27 28 28 28 27 28 28 27 26 27 29 30 30 30 30 31 32 31 30 29 29 28 30 33 33 32 33 35 35
38 40 41 40 39 40 40 39 38 39 39 39 38 36 34 34 35 36 35 35 37 36 32 29 26 24 23 23 23 23 23 23 24 24 25 26 26 27 27 26 26 26 27 27 27 29 31 31 30 30 30 30 30 27 27 31 31 30 29 30 30 31 31 30 30 30 29 31 34 36 35 35 35 35
40 41 42 41 40 41 41 40 38 38 38 39 40 39 38 36 35 35 34 35 36 35 33 30 27 24 22 22 23 23 24 25 26 26 27 28 29 29 29 28 28 29 29 29 30 31 33 33 33 32 32 33 33 30 29 31 32 31 31 31 31 32 33 32 31 30 31 32 35 38 39 38 36 35
42 42 43 42 42 43 43 42 41 40 39 38 38 36 34 32 32 32 33 34 34 34 34 33 28 24 23 23 25 26 28 30 30 30 30 31 32 33 32 31 31 32 32 31 32 32 33 34 35 34 34 34 35 34 33 32 31 31 33 35 34 34 34 34 33 32 33 33 35 37 39 40 38 36
43 44 44 43 44 45 44 42 42 41 40 37 35 33 31 29 29 31 32 33 33 34 35 34 30 27 25 26 28 30 32 34 34 34 34 34 35 35 35 35 35 35 34 33 33 33 33 34 35 37 37 35 34 34 35 34 31 30 32 35 38 38 36 36 36 35 35 35 36 38 40 40 39 38
45 45 45 45 46 46 44 42 40 40 39 37 35 35 35 33 31 29 29 31 32 34 35 33 30 28 27 29 33 36 38 38 38 37 37 38 38 37 37 36 36 36 36 35 34 33 33 34 35 38 39 38 35 35 37 37 35 33 32 34 38 40 39 38 38 38 38 38 39 40 41 42 41 40
49 47 47 48 48 48 46 43 41 40 42 40 36 35 37 38 37 35 33 34 36 37 36 32 28 28 29 33 37 40 42 42 42 41 40 40 39 38 38 37 36 36 36 36 35 34 34 35 36 37 39 40 39 38 39 38 37 36 35 36 38 40 40 40 40 40 40 40 41 41 42 43 44 43
55 52 50 50 50 51 50 47 45 45 48 50 47 44 43 44 44 42 41 43 44 42 37 31 28 30 35 39 42 45 46 45 44 43 42 42 41 40 39 38 37 37 37 37 36 35 36 38 39 39 40 41 40 38 37 36 36 37 38 39 40 42 43 43 43 42 42 42 42 42 43 45 45 45
59 57 54 52 52 53 53 52 50 50 53 57 58 56 55 53 50 47 46 47 45 41 37 33 33 37 42 44 44 44 43 41 41 42 42 42 41 40 38 38 38 38 38 37 36 36 37 39 41 42 42 40 39 38 37 36 36 36 37 39 40 41 42 44 45 45 44 43 43 43 45 47 46 45
61 60 58 55 54 55 55 55 54 54 55 57 58 59 60 58 52 47 46 46 44 42 43 43 42 42 43 43 42 41 41 40 42 44 44 44 43 41 41 42 42 40 39 39 39 38 38 38 40 42 41 39 37 37 37 36 37 37 38 38 38 38 40 42 43 44 44 44 44 45 47 49 49 47
62 62 61 59 57 56 56 57 57 56 56 58 58 58 59 58 53 47 46 46 45 46 49 52 50 46 43 43 42 42 43 45 46 47 48 47 45 44 44 44 43 40 38 38 40 41 40 38 39 41 41 39 38 37 37 38 38 39 40 41 40 39 40 42 43 44 45 44 45 46 49 50 51 50
Wind_Direction
206 200 211 214 211 223 232 229 210 196 201 187 166 167 166 164 176 186 187 188 194 197 192 191 204 215 221 228 236 245 253 261 271 279 287 296 300 302 303 305 309 313 317 321 322 325 328 331 334 336 339 342 342 344 346 348 350 351 353 353 353 354 351 347 349 353 355 357 1 6 13 20 29 36
248 231 226 221 215 218 225 231 234 226 224 213 196 187 182 184 192 199 202 202 208 215 213 222 235 236 236 240 246 255 263 268 275 283 289 296 300 303 305 306 308 309 311 314 317 320 324 328 331 334 337 340 343 347 350 352 355 358 360 360 360 360 357 351 348 350 353 354 358 4 10 18 27 35
269 258 243 233 225 221 219 224 234 234 226 219 212 203 200 202 207 211 214 214 221 225 221 230 240 244 248 251 255 262 271 275 277 282 287 293 297 300 303 305 306 306 306 310 313 318 324 327 330 333 338 343 347 352 356 359 1 2 2 2 2 2 0 355 349 347 349 351 355 1 6 13 21 28
263 257 251 244 237 233 226 222 228 235 234 227 219 215 213 213 217 222 224 224 229 229 229 236 241 244 250 255 258 262 269 276 280 283 286 290 294 298 301 302 304 305 308 312 316 320 325 327 331 337 342 347 351 356 359 1 1 0 359 359 359 1 1 358 352 347 345 348 351 357 2 7 14 20
256 254 252 248 244 243 239 232 230 236 241 240 235 230 226 223 225 229 232 234 237 235 237 243 247 250 253 256 260 263 267 274 280 285 288 290 292 295 298 300 301 304 308 312 317 322 325 328 333 339 343 347 350 353 355 356 356 354 352 352 353 355 357 358 355 348 343 344 348 353 358 3 9 14
252 255 255 253 249 247 244 240 238 238 241 243 245 246 243 238 234 235 236 239 243 243 243 247 249 252 257 260 263 267 270 274 278 284 287 290 291 291 293 296 297 301 305 309 316 323 327 328 332 334 336 340 343 344 346 347 347 345 344 345 346 348 351 354 354 350 342 340 344 349 354 360 6 11
247 251 254 255 252 251 248 245 241 240 242 243 244 246 249 250 246 243 242 241 244 246 248 251 252 254 259 262 265 268 272 275 277 280 283 288 293 295 295 295 296 300 303 307 314 322 326 325 325 326 328 330 333 334 335 336 336 336 337 338 339 340 342 347 351 350 343 337 340 345 348 355 2 7
245 246 249 252 252 252 250 248 244 242 243 243 243 243 245 249 250 250 250 247 247 249 251 254 256 258 260 263 265 267 269 272 274 278 283 289 294 296 299 302 303 302 301 302 307 313 318 320 319 319 320 321 324 326 327 328 329 330 332 333 334 334 336 339 344 347 344 335 335 340 341 346 356 2
246 247 247 248 250 252 251 250 248 245 244 242 242 244 244 247 249 250 254 255 254 254 254 256 257 258 260 262 263 265 267 271 274 279 285 290 292 295 299 306 309 307 302 300 303 308 314 318 319 317 315 315 316 319 321 323 325 327 329 331 331 331 333 335 338 343 344 335 331 335 335 335 346 354
247 248 249 248 248 250 250 251 251 248 247 244 242 243 244 245 248 249 252 256 258 259 258 258 258 258 259 261 263 266 269 272 276 281 285 288 291 295 300 306 311 312 307 303 305 309 313 316 317 317 318 317 317 319 322 324 326 328 329 330 331 332 332 333 336 340 342 335 327 329 329 325 332 344
247 247 248 249 249 250 250 251 252 251 251 249 246 244 244 244 246 248 251 254 256 259 260 261 262 263 264 266 268 270 272 275 280 284 286 286 290 296 301 304 306 307 308 309 309 310 311 310 311 314 319 321 322 325 329 331 331 330 330 330 331 332 333 334 336 339 339 333 324 323 325 320 317 327
248 248 248 248 249 251 251 251 251 252 253 253 250 248 245 244 245 247 249 252 254 257 260 262 264 266 267 268 269 271 275 279 283 284 283 284 288 295 299 301 303 306 312 316 317 315 315 315 315 318 323 325 325 327 332 334 333 331 331 330 331 332 333 335 337 338 337 332 322 318 319 319 313 311
251 249 249 249 250 250 251 252 252 251 252 252 251 250 249 247 247 247 248 249 252 255 258 260 261 263 264 265 266 269 272 274 275 277 278 280 285 290 295 299 306 315 322 324 323 320 322 324 322 323 326 326 325 328 332 333 331 330 330 330 331 332 334 336 336 336 336 331 321 315 315 316 314 309
256 254 252 252 252 253 253 252 251 250 250 250 250 250 250 249 249 248 248 248 250 251 253 255 256 257 258 259 261 264 266 264 264 268 274 278 284 289 293 298 307 319 323 321 318 317 319 324 323 324 328 327 327 332 336 335 331 329 328 328 329 331 332 334 334 335 336 331 321 313 312 314 315 312
258 257 256 255 255 256 256 254 252 251 250 251 250 249 249 248 248 248 248 247 247 248 249 251 253 255 256 258 261 264 266 265 265 266 270 275 280 285 290 297 305 313 316 316 315 314 317 324 325 326 331 331 333 339 343 342 339 334 330 327 326 326 327 330 332 334 335 332 321 312 310 312 315 315
257 258 257 256 256 258 259 258 257 254 252 251 250 250 249 248 248 247 246 245 245 247 249 251 253 256 258 261 263 266 270 272 271 270 271 274 278 282 287 293 299 304 309 312 311 310 314 322 324 324 330 333 335 341 345 346 345 340 334 330 325 323 325 328 331 333 334 331 321 311 308 310 315 317
256 257 257 256 255 255 257 259 260 258 256 253 251 250 249 249 248 247 246 246 246 248 250 253 255 258 260 263 265 268 271 274 274 273 272 272 275 280 286 290 295 300 305 309 308 306 310 317 319 321 328 332 333 338 343 344 345 343 339 336 331 328 328 329 330 331 332 330 321 311 307 308 313 317
254 255 254 254 254 253 253 255 257 259 258 255 253 251 250 249 248 248 248 248 248 249 251 254 257 259 261 264 266 268 269 270 271 271 271 272 276 282 288 291 296 301 304 307 309 306 307 313 315 315 323 331 332 334 338 341 343 343 342 340 337 334 331 330 330 331 329 326 320 311 306 307 312 316
248 250 251 251 252 252 252 252 252 254 256 255 253 252 252 251 251 250 250 251 250 251 251 254 257 260 262 263 266 268 269 269 270 270 272 274 277 283 289 293 297 300 302 305 308 307 307 309 311 310 315 326 329 330 334 338 340 341 341 342 340 336 332 328 329 329 327 322 316 310 305 304 309 314
245 247 248 250 250 251 252 252 251 251 252 252 252 251 251 252 252 252 253 253 253 251 250 251 255 258 261 264 266 268 269 270 271 273 276 277 278 281 287 291 295 298 299 300 302 304 304 305 308 309 310 317 324 327 329 333 336 338 339 340 339 336 332 328 327 327 325 318 312 307 303 302 304 309
249 249 249 249 250 250 251 252 251 250 250 250 250 249 248 248 249 250 253 254 254 252 249 248 251 255 259 262 266 269 271 273 273 274 277 278 278 280 284 288 292 295 297 297 297 299 300 300 302 304 306 310 317 322 326 329 331 333 335 336 337 335 331 327 325 325 323 316 309 304 301 300 301 304
256 255 254 252 250 250 249 249 249 249 248 248 248 248 246 245 245 247 251 253 254 253 251 249 249 253 258 262 265 269 272 275 276 276 276 276 276 276 279 281 284 289 292 293 294 297 298 298 299 299 301 304 309 314 319 323 326 327 329 331 333 332 330 327 325 324 322 315 306 300 299 300 301 303
259 258 257 256 253 251 249 248 248 248 248 248 247 247 245 242 243 247 248 249 251 252 253 252 252 253 257 261 265 270 273 275 276 276 275 275 274 275 277 278 280 282 285 286 288 292 293 293 295 296 297 300 303 306 311 315 319 321 322 324 328 328 327 326 324 323 322 317 308 299 297 298 300 302
257 256 256 256 256 254 251 250 249 249 249 248 247 247 245 242 242 245 246 247 248 250 250 252 254 255 258 261 264 268 271 272 273 273 273 274 275 276 277 278 278 279 281 282 284 288 289 289 291 293 294 296 298 300 304 307 311 314 315 317 322 324 324 323 322 321 321 319 313 303 296 295 297 300
257 255 253 251 252 252 252 252 252 252 252 251 250 250 248 244 241 242 245 247 248 249 249 250 253 256 260 264 267 268 269 270 269 269 270 271 273 276 277 278 278 279 279 281 284 287 288 289 291 292 294 296 298 300 301 302 305 308 310 311 315 318 320 321 321 320 320 320 318 311 302 297 296 298
262 259 256 253 251 252 252 253 254 255 256 256 256 255 253 250 246 244 245 246 248 250 252 254 255 256 258 261 264 266 267 268 268 267 269 271 273 274 275 277 279 282 282 283 285 287 287 288 289 291 293 295 296 298 300 301 302 303 304 306 309 311 314 317 318 319 319 319 319 317 311 303 297 296
261 261 260 259 258 256 255 254 255 257 258 259 260 259 258 254 251 248 247 247 249 251 253 254 254 254 255 254 255 257 259 261 264 267 271 275 278 280 283 285 287 289 289 288 289 289 288 287 287 288 289 291 293 294 296 298 301 302 301 302 303 303 306 309 311 313 315 316 315 314 313 309 302 297
257 256 255 257 258 258 257 257 257 258 260 261 261 261 260 258 255 253 251 250 250 250 249 249 248 247 249 251 252 253 255 257 262 267 271 275 279 282 287 291 293 293 293 293 293 291 290 289 288 287 289 290 292 292 293 295 298 300 300 299 298 298 300 302 304 305 308 310 311 310 310 309 305 300
258 255 252 252 254 256 258 259 259 260 261 263 263 262 261 261 261 259 255 251 248 245 244 244 244 244 245 247 249 253 257 261 266 270 273 277 280 281 281 283 287 290 291 292 293 292 292 293 293 293 294 294 295 295 295 296 297 299 299 297 295 295 295 297 300 302 303 306 308 309 308 307 303 299
263 262 259 256 253 253 255 256 258 260 261 262 262 261 260 262 263 261 256 250 245 242 240 241 242 244 246 247 250 254 259 264 268 271 274 277 281 282 281 280 281 284 285 286 287 288 290 292 294 297 299 300 300 299 298 299 300 299 298 295 294 293 292 293 296 298 300 304 307 308 308 307 304 300
269 267 265 263 259 256 254 253 253 254 257 260 261 260 260 262 262 259 254 249 244 241 240 241 242 243 246 249 252 256 259 263 267 270 273 275 279 282 284 285 284 282 282 283 284 286 288 291 294 297 299 301 302 302 301 301 301 299 298 296 294 292 291 291 292 292 294 298 302 305 307 308 306 304
272 271 267 265 262 259 257 254 250 249 251 255 258 260 260 260 260 257 254 251 247 243 240 239 240 242 245 248 252 255 258 262 266 269 271 273 275 277 280 282 283 282 282 284 285 285 287 289 293 295 297 300 302 302 303 303 301 299 297 296 294 293 291 290 290 290 291 293 297 301 305 307 308 308
272 271 268 265 262 259 256 254 252 249 248 249 251 255 258 259 259 259 257 254 249 245 242 239 239 241 244 248 251 254 256 259 262 265 268 270 271 273 275 277 279 281 284 286 288 289 290 290 292 294 295 296 299 301 301 301 300 298 296 296 297 297 294 291 290 290 291 293 295 297 299 301 305 309
269 268 265 262 260 258 255 254 253 251 249 247 246 248 251 255 257 260 261 259 253 247 243 239 238 240 242 246 250 253 254 255 257 260 263 266 269 273 276 278 280 283 285 287 288 289 290 290 290 291 291 292 294 298 299 297 295 295 296 297 299 299 299 297 294 292 291 291 292 293 293 294 298 304
269 268 265 261 258 258 257 255 253 251 248 246 245 244 244 247 251 255 258 258 255 250 244 238 235 237 240 243 248 251 253 254 256 259 263 266 269 273 276 279 282 284 285 286 287 287 287 288 289 288 287 287 288 293 296 294 292 293 296 297 298 298 299 298 296 295 293 290 288 289 289 290 294 300
267 267 266 262 259 259 258 256 254 253 249 245 245 244 242 240 241 244 245 248 250 250 246 240 236 235 238 242 247 251 254 256 258 261 264 266 268 270 272 275 278 279 281 283 285 286 286 288 288 287 287 285 284 285 289 289 289 291 293 293 294 294 294 294 294 295 294 289 288 288 289 289 292 296
265 264 265 264 261 260 258 256 256 255 251 248 248 247 243 238 238 239 240 243 246 246 244 241 238 236 240 246 250 253 256 257 258 260 263 266 268 269 271 272 274 275 277 279 281 283 284 286 286 287 287 286 285 284 284 284 287 291 292 291 290 290 290 291 292 293 292 290 289 290 291 291 292 294
264 263 264 263 262 261 259 258 258 256 254 252 250 247 242 239 239 240 242 246 247 243 239 239 239 237 241 248 252 255 257 258 258 260 261 264 265 267 269 270 271 272 274 275 277 280 282 284 286 287 286 286 287 286 285 285 287 290 292 292 291 289 288 289 290 290 290 290 290 290 290 291 293 293
264 263 263 263 263 262 261 261 261 258 251 247 247 249 248 247 247 246 249 252 251 245 240 239 240 241 244 249 253 255 257 258 259 260 261 262 264 265 266 268 269 270 272 272 274 277 280 283 286 287 286 286 286 287 290 291 290 289 290 291 291 290 289 290 289 288 288 289 289 288 289 290 292 292
263 263 263 263 263 263 262 262 262 256 244 239 246 254 256 256 256 254 255 256 253 246 239 237 240 245 251 255 256 257 257 258 259 260 260 260 262 263 264 266 267 269 271 273 275 277 280 282 284 286 287 287 288 291 296 298 295 290 286 286 287 289 291 290 289 288 288 287 287 287 288 289 290 291
261 261 262 262 262 262 260 260 258 250 239 238 249 260 261 261 261 261 260 259 255 247 241 240 247 256 259 257 256 257 257 256 256 257 258 258 260 261 261 262 263 266 269 272 275 278 281 282 282 283 285 287 290 293 296 297 295 290 287 284 284 285 287 287 287 287 287 286 285 285 286 287 288 289
259 259 260 260 261 261 260 258 256 248 241 241 251 260 264 264 263 262 262 261 257 251 247 248 256 263 262 257 254 253 253 252 252 252 252 253 254 257 259 261 262 264 266 268 271 275 278 280 282 284 284 286 288 291 293 293 292 290 288 287 285 284 285 285 285 285 285 285 285 286 285 285 286 288
257 257 258 258 259 260 260 258 257 253 249 249 253 259 262 263 263 262 262 263 262 261 259 257 255 254 255 254 254 254 256 257 258 257 257 257 258 259 261 264 265 265 267 270 272 273 275 278 282 284 284 285 288 291 291 291 291 289 289 289 290 291 290 289 286 285 284 284 285 286 286 285 287 288
255 255 257 257 257 257 258 258 257 256 256 258 260 262 264 266 268 269 269 269 270 272 273 269 262 259 260 262 264 267 270 270 269 267 265 264 264 264 264 266 268 270 272 276 277 276 275 275 278 279 280 282 285 287 289 290 290 290 291 292 295 296 297 295 292 289 287 285 285 284 284 284 285 287
253 254 255 256 256 256 257 258 257 257 258 260 262 264 265 266 268 270 270 269 268 269 271 271 270 270 271 270 269 270 270 269 268 267 265 265 267 269 269 270 271 271 272 276 278 278 278 277 276 277 279 281 283 285 286 287 288 290 292 295 296 297 296 296 297 296 294 291 288 285 283 282 283 285
Height
5974 5975 5976 5976 5977 5978 5978 5979 5980 5981 5982 5982 5983 5983 5984 5985 5985 5986 5986 5987 5987 5988 5988 5988 5988 5988 5989 5989 5989 5989 5989 5989 5988 5988 5988 5987 5986 5986 5985 5985 5984 5983 5982 5982 5981 5980 5979 5978 5976 5975 5973 5972 5970 5969 5967 5966 5964 5962 5961 5959 5957 5956 5954 5952 5950 5949 5947 5945 5944 5942 5940 5938 5935 5933
5974 5975 5976 5976 5977 5978 5978 5979 5980 5981 5981 5982 5983 5983 5984 5985 5985 5986 5986 5987 5988 5988 5989 5989 5989 5989 5989 5989 5989 5989 5989 5989 5988 5988 5988 5987 5986 5985 5985 5984 5984 5983 5982 5981 5980 5979 5978 5977 5976 5974 5973 5971 5970 5968 5967 5966 5964 5962 5961 5959 5957 5955 5953 5951 5950 5948 5947 5945 5944 5942 5940 5938 5936 5934
5974 5975 5975 5976 5977 5977 5978 5979 5979 5980 5981 5982 5982 5983 5984 5984 5985 5986 5986 5987 5987 5988 5988 5988 5988 5989 5989 5989 5989 5989 5989 5988 5988 5988 5987 5987 5986 5985 5984 5984 5983 5982 5981 5980 5980 5979 5978 5976 5975 5974 5972 5971 5969 5968 5967 5965 5964 5962 5961 5959 5957 5955 5953 5951 5949 5948 5947 5945 5944 5943 5941 5939 5937 5935
5974 5975 5975 5976 5976 5977 5978 5979 5979 5980 5980 5981 5982 5982 5983 5984 5984 5985 5986 5986 5987 5987 5987 5987 5988 5988 5988 5988 5988 5989 5988 5988 5988 5987 5987 5987 5986 5985 5984 5983 5982 5981 5980 5979 5979 5978 5977 5976 5975 5973 5972 5971 5969 5968 5967 5965 5964 5962 5961 5959 5957 5955 5953 5951 5949 5947 5946 5945 5944 5943 5941 5939 5938 5936
5974 5974 5975 5975 5976 5976 5977 5978 5979 5979 5980 5980 5981 5982 5983 5983 5984 5984 5985 5985 5986 5986 5986 5986 5987 5987 5987 5987 5988 5988 5988 5987 5987 5986 5986 5985 5985 5984 5983 5982 5981 5980 5979 5978 5977 5977 5976 5975 5974 5973 5972 5971 5969 5968 5967 5965 5964 5962 5961 5959 5957 5955 5953 5951 5949 5947 5946 5945 5944 5943 5941 5940 5938 5937
5973 5974 5974 5975 5975 5976 5977 5978 5978 5979 5979 5980 5980 5981 5982 5983 5983 5983 5984 5984 5985 5985 5985 5985 5986 5986 5986 5987 5987 5986 5986 5986 5986 5985 5984 5984 5983 5983 5983 5982 5980 5979 5978 5977 5976 5976 5975 5975 5974 5973 5972 5970 5969 5968 5966 5965 5964 5962 5961 5959 5957 5955 5953 5951 5949 5947 5946 5944 5943 5942 5941 5940 5939 5937
5973 5973 5974 5974 5975 5976 5976 5977 5978 5978 5979 5979 5980 5980 5981 5981 5982 5983 5983 5983 5984 5984 5984 5984 5985 5985 5985 5985 5985 5985 5985 5984 5984 5984 5983 5982 5982 5981 5981 5981 5980 5979 5978 5977 5976 5975 5975 5974 5973 5972 5971 5970 5969 5967 5966 5965 5963 5962 5960 5959 5957 5955 5953 5951 5949 5947 5945 5944 5943 5942 5941 5940 5939 5937
5972 5972 5973 5974 5974 5975 5976 5976 5977 5977 5978 5978 5979 5979 5980 5980 5981 5981 5982 5982 5982 5983 5983 5983 5984 5984 5984 5984 5984 5984 5983 5983 5983 5982 5982 5981 5981 5980 5979 5979 5979 5978 5977 5976 5975 5974 5974 5973 5973 5972 5971 5969 5968 5967 5965 5964 5962 5961 5960 5958 5956 5955 5953 5951 5949 5947 5945 5944 5943 5942 5941 5940 5938 5937
5971 5971 5972 5973 5973 5974 5975 5975 5976 5976 5977 5977 5978 5978 5979 5979 5980 5980 5980 5981 5981 5982 5982 5982 5982 5982 5982 5982 5982 5982 5982 5981 5981 5981 5981 5980 5979 5979 5978 5977 5977 5977 5976 5975 5975 5974 5973 5973 5972 5971 5970 5969 5967 5965 5964 5963 5961 5960 5959 5957 5956 5954 5952 5950 5948 5946 5945 5943 5942 5941 5940 5939 5938 5937
5969 5970 5971 5972 5972 5973 5974 5974 5974 5975 5975 5976 5976 5977 5977 5978 5978 5979 5979 5980 5980 5980 5980 5981 5981 5981 5981 5981 5981 5980 5980 5980 5980 5980 5980 5979 5978 5977 5977 5976 5976 5976 5975 5975 5974 5973 5972 5971 5970 5970 5969 5967 5965 5964 5963 5962 5960 5959 5958 5956 5955 5953 5951 5949 5948 5946 5944 5942 5941 5941 5940 5939 5938 5937
5968 5969 5970 5970 5971 5972 5972 5973 5973 5973 5974 5974 5975 5975 5976 5976 5977 5977 5978 5978 5979 5979 5979 5979 5979 5979 5979 5979 5979 5979 5979 5979 5979 5979 5978 5978 5977 5976 5976 5975 5975 5974 5974 5974 5973 5972 5971 5970 5969 5968 5967 5965 5964 5962 5962 5960 5959 5958 5956 5955 5953 5952 5950 5949 5947 5945 5943 5942 5940 5940 5939 5938 5937 5936
5966 5967 5968 5969 5969 5970 5970 5971 5971 5972 5972 5972 5973 5973 5973 5974 5975 5975 5976 5977 5977 5977 5978 5978 5978 5978 5978 5978 5978 5978 5978 5978 5978 5977 5977 5976 5976 5975 5975 5974 5974 5973 5973 5973 5972 5971 5970 5969 5968 5966 5965 5964 5962 5961 5960 5959 5957 5956 5955 5953 5952 5951 5949 5947 5945 5944 5942 5941 5940 5939 5938 5937 5936 5935
5964 5965 5966 5967 5967 5968 5968 5969 5970 5970 5970 5970 5971 5971 5971 5972 5973 5973 5974 5975 5975 5976 5976 5977 5977 5977 5977 5977 5977 5977 5977 5977 5977 5976 5976 5975 5975 5974 5973 5973 5972 5972 5972 5971 5970 5970 5970 5969 5968 5966 5965 5963 5961 5960 5959 5957 5956 5954 5953 5952 5951 5949 5948 5946 5945 5943 5941 5940 5939 5938 5937 5936 5935 5934
5962 5963 5964 5964 5965 5966 5966 5967 5967 5968 5968 5968 5969 5969 5969 5970 5970 5971 5972 5972 5973 5974 5974 5975 5975 5976 5976 5976 5976 5976 5976 5976 5976 5975 5975 5974 5974 5973 5972 5972 5971 5971 5971 5970 5969 5968 5968 5968 5967 5966 5965 5963 5960 5959 5958 5956 5954 5953 5952 5950 5949 5948 5946 5945 5944 5942 5941 5939 5938 5937 5936 5936 5935 5934
5960 5961 5962 5962 5963 5963 5964 5964 5965 5965 5966 5966 5966 5967 5967 5968 5968 5969 5969 5970 5971 5971 5972 5973 5973 5974 5974 5974 5974 5974 5975 5975 5974 5974 5973 5973 5973 5972 5971 5971 5970 5970 5970 5969 5967 5966 5966 5966 5965 5964 5964 5962 5960 5959 5957 5955 5953 5952 5950 5949 5947 5946 5945 5944 5943 5941 5940 5938 5937 5936 5935 5935 5934 5933
5959 5959 5960 5960 5961 5961 5962 5962 5962 5963 5963 5964 5964 5965 5965 5965 5966 5967 5967 5968 5968 5969 5970 5970 5971 5971 5972 5972 5972 5972 5973 5973 5972 5972 5972 5971 5971 5971 5970 5970 5969 5968 5968 5968 5966 5964 5964 5964 5963 5962 5961 5960 5959 5958 5956 5954 5953 5951 5949 5948 5947 5945 5944 5943 5941 5940 5938 5937 5936 5935 5934 5933 5933 5932
5957 5957 5958 5958 5959 5959 5960 5960 5960 5961 5961 5961 5962 5962 5963 5963 5964 5964 5965 5965 5966 5967 5968 5968 5968 5969 5969 5970 5970 5970 5970 5970 5970 5970 5970 5970 5970 5969 5969 5968 5967 5967 5966 5966 5965 5963 5962 5962 5961 5960 5960 5958 5957 5956 5955 5954 5952 5950 5948 5947 5946 5944 5943 5942 5940 5939 5937 5936 5935 5934 5933 5933 5932 5931
5954 5955 5955 5956 5957 5957 5958 5958 5958 5959 5959 5959 5960 5960 5960 5961 5961 5962 5963 5963 5964 5964 5965 5966 5966 5966 5967 5967 5967 5968 5968 5968 5968 5968 5968 5968 5968 5967 5967 5966 5966 5965 5964 5964 5963 5962 5960 5960 5960 5959 5958 5957 5955 5954 5953 5952 5951 5949 5947 5946 5944 5943 5941 5940 5939 5938 5936 5935 5934 5933 5932 5932 5931 5930
5951 5952 5953 5954 5954 5955 5956 5956 5956 5956 5957 5957 5957 5958 5958 5959 5959 5960 5960 5960 5961 5962 5963 5963 5963 5964 5964 5965 5965 5965 5966 5965 5965 5965 5966 5965 5965 5965 5965 5964 5963 5963 5962 5961 5961 5960 5958 5958 5958 5957 5957 5956 5954 5952 5951 5951 5949 5948 5946 5944 5943 5941 5940 5939 5938 5937 5935 5934 5933 5932 5931 5931 5930 5929
5948 5949 5950 5951 5952 5952 5953 5953 5954 5954 5954 5954 5955 5956 5956 5956 5957 5958 5958 5958 5958 5959 5960 5961 5961 5961 5962 5962 5962 5963 5963 5963 5963 5963 5963 5963 5963 5963 5963 5962 5961 5961 5959 5959 5959 5958 5957 5956 5956 5955 5954 5954 5953 5951 5950 5949 5947 5946 5944 5943 5941 5940 5938 5937 5936 5935 5934 5933 5932 5931 5930 5929 5929 5928
5945 5946 5947 5948 5949 5950 5950 5951 5951 5951 5951 5952 5952 5953 5953 5954 5955 5955 5955 5955 5955 5956 5957 5958 5958 5959 5959 5959 5960 5960 5960 5960 5960 5961 5960 5960 5960 5960 5960 5960 5959 5958 5957 5955 5955 5956 5955 5953 5953 5953 5952 5952 5951 5950 5948 5947 5945 5944 5943 5941 5940 5939 5937 5936 5935 5934 5933 5932 5931 5930 5929 5928 5927 5927
5944 5944 5944 5944 5945 5947 5947 5947 5947 5947 5948 5948 5949 5949 5950 5951 5952 5953 5952 5951 5952 5952 5953 5954 5955 5956 5956 5956 5957 5957 5957 5957 5957 5957 5957 5957 5956 5957 5958 5957 5957 5956 5955 5952 5952 5953 5952 5950 5950 5950 5949 5949 5949 5948 5947 5945 5944 5942 5941 5940 5939 5938 5936 5935 5933 5932 5931 5930 5929 5928 5927 5927 5926 5925
5942 5942 5942 5942 5942 5943 5943 5943 5944 5944 5944 5945 5945 5945 5945 5947 5949 5949 5948 5947 5948 5949 5950 5951 5952 5952 5953 5953 5954 5954 5954 5954 5954 5954 5954 5953 5953 5954 5954 5954 5954 5954 5953 5950 5949 5950 5950 5948 5946 5946 5946 5946 5946 5946 5945 5944 5943 5941 5939 5939 5938 5937 5935 5934 5932 5931 5929 5928 5927 5926 5926 5925 5924 5924
5938 5938 5939 5939 5939 5939 5940 5940 5940 5940 5941 5941 5941 5941 5941 5944 5945 5944 5943 5943 5944 5945 5946 5947 5948 5949 5949 5950 5950 5951 5951 5950 5950 5950 5949 5949 5949 5950 5950 5950 5950 5950 5949 5947 5946 5946 5946 5945 5943 5943 5942 5943 5943 5943 5943 5942 5941 5939 5937 5937 5936 5935 5934 5932 5931 5930 5928 5927 5925 5925 5924 5923 5923 5922
5934 5934 5934 5934 5934 5934 5935 5936 5937 5937 5938 5938 5938 5938 5939 5940 5941 5940 5939 5940 5940 5940 5942 5943 5944 5945 5945 5946 5946 5946 5946 5946 5945 5945 5945 5945 5945 5945 5946 5946 5946 5946 5946 5944 5943 5943 5942 5941 5940 5939 5938 5938 5938 5938 5939 5939 5939 5937 5935 5934 5934 5933 5932 5930 5929 5927 5926 5925 5924 5923 5922 5921 5921 5920
5931 5931 5930 5929 5929 5929 5931 5932 5933 5935 5935 5935 5935 5936 5937 5938 5937 5936 5936 5936 5936 5937 5938 5939 5940 5941 5942 5942 5942 5942 5941 5941 5940 5940 5940 5940 5941 5941 5942 5942 5942 5943 5942 5941 5940 5940 5939 5938 5937 5935 5934 5934 5934 5934 5933 5934 5935 5935 5933 5931 5931 5930 5929 5928 5927 5925 5924 5923 5922 5921 5920 5919 5919 5918
5926 5927 5927 5926 5927 5928 5928 5929 5930 5931 5932 5933 5934 5935 5935 5935 5934 5933 5933 5933 5933 5934 5934 5935 5936 5936 5936 5937 5937 5936 5936 5936 5935 5936 5936 5937 5937 5937 5938 5938 5939 5939 5938 5937 5937 5936 5936 5935 5934 5932 5931 5930 5930 5930 5929 5928 5929 5931 5930 5929 5928 5927 5926 5926 5925 5923 5922 5921 5920 5919 5918 5917 5916 5916
5920 5921 5922 5923 5924 5925 5926 5926 5927 5927 5928 5930 5932 5933 5933 5932 5931 5931 5931 5931 5930 5931 5931 5931 5931 5932 5931 5931 5931 5931 5931 5931 5932 5933 5933 5934 5934 5935 5935 5935 5935 5935 5934 5933 5932 5932 5931 5931 5930 5928 5927 5926 5926 5926 5925 5924 5924 5926 5926 5926 5925 5924 5923 5922 5922 5921 5920 5919 5917 5916 5916 5915 5914 5913
5915 5916 5916 5918 5919 5920 5921 5923 5924 5924 5924 5925 5927 5929 5930 5930 5930 5930 5929 5928 5927 5927 5927 5927 5927 5927 5927 5927 5927 5927 5927 5928 5929 5929 5930 5930 5931 5932 5933 5933 5933 5932 5931 5929 5928 5928 5927 5926 5925 5924 5923 5923 5922 5921 5921 5920 5920 5921 5922 5922 5921 5921 5919 5918 5917 5917 5916 5916 5915 5914 5913 5912 5911 5910
5911 5913 5913 5914 5915 5916 5916 5917 5920 5921 5921 5921 5922 5924 5926 5927 5927 5927 5926 5925 5923 5923 5923 5922 5922 5923 5923 5922 5923 5923 5923 5924 5925 5925 5925 5926 5926 5926 5927 5929 5929 5929 5927 5926 5925 5924 5923 5923 5922 5921 5920 5919 5918 5918 5917 5916 5916 5916 5916 5917 5917 5917 5916 5915 5914 5913 5911 5911 5912 5911 5909 5908 5908 5907
5906 5909 5910 5911 5912 5913 5913 5913 5914 5916 5917 5917 5917 5919 5921 5922 5923 5923 5922 5921 5920 5919 5918 5918 5918 5918 5918 5918 5919 5919 5920 5921 5921 5921 5921 5922 5922 5922 5922 5924 5924 5924 5923 5923 5922 5921 5920 5919 5919 5918 5917 5915 5914 5913 5913 5913 5912 5911 5911 5911 5912 5914 5913 5912 5911 5910 5908 5908 5908 5907 5906 5905 5904 5903
5901 5903 5905 5907 5908 5910 5910 5909 5909 5909 5911 5912 5914 5915 5916 5917 5918 5919 5918 5918 5917 5916 5914 5913 5913 5913 5914 5914 5915 5915 5916 5917 5917 5917 5917 5918 5918 5918 5918 5919 5919 5919 5919 5919 5918 5917 5917 5916 5915 5915 5914 5913 5911 5910 5909 5908 5908 5906 5905 5905 5906 5909 5910 5909 5907 5906 5905 5904 5904 5904 5903 5902 5901 5900
5897 5898 5900 5901 5903 5905 5906 5905 5905 5905 5905 5906 5908 5909 5910 5911 5913 5915 5915 5915 5914 5912 5909 5909 5909 5909 5909 5910 5910 5911 5912 5913 5913 5912 5913 5913 5913 5913 5914 5915 5915 5914 5914 5914 5913 5913 5912 5912 5911 5910 5910 5909 5908 5907 5905 5904 5903 5902 5901 5900 5900 5902 5904 5904 5903 5902 5900 5899 5899 5900 5899 5898 5897 5896
5893 5894 5894 5895 5896 5898 5899 5900 5902 5902 5902 5902 5902 5903 5904 5906 5908 5910 5912 5913 5912 5909 5907 5905 5904 5904 5904 5905 5906 5907 5908 5909 5909 5908 5908 5908 5908 5908 5909 5909 5910 5909 5909 5909 5909 5908 5907 5907 5907 5906 5905 5904 5904 5903 5901 5900 5899 5898 5897 5896 5896 5896 5897 5898 5898 5898 5896 5894 5893 5894 5894 5893 5892 5891
5889 5889 5888 5889 5890 5891 5893 5895 5897 5898 5898 5899 5898 5898 5898 5899 5901 5903 5906 5907 5908 5907 5905 5902 5900 5899 5899 5900 5901 5902 5903 5904 5904 5904 5904 5904 5903 5904 5904 5904 5904 5904 5904 5904 5904 5903 5902 5902 5902 5902 5901 5900 5900 5899 5897 5895 5894 5894 5894 5893 5892 5891 5891 5892 5892 5893 5892 5890 5888 5888 5888 5888 5887 5887
5884 5883 5883 5884 5885 5886 5887 5890 5891 5892 5893 5894 5894 5893 5893 5894 5894 5895 5897 5899 5901 5903 5903 5900 5896 5894 5894 5895 5896 5897 5898 5899 5899 5899 5899 5899 5898 5898 5899 5899 5899 5899 5898 5898 5898 5897 5896 5896 5896 5896 5896 5895 5895 5896 5894 5890 5889 5890 5889 5889 5888 5886 5886 5886 5887 5887 5887 5886 5883 5882 5882 5883 5882 5882
5879 5878 5877 5879 5879 5879 5881 5884 5886 5887 5888 5889 5889 5889 5888 5888 5888 5889 5889 5891 5894 5897 5899 5898 5894 5890 5888 5889 5891 5892 5893 5893 5893 5894 5894 5893 5893 5893 5893 5894 5894 5893 5893 5893 5892 5891 5891 5890 5890 5890 5890 5888 5889 5890 5890 5887 5886 5885 5884 5884 5884 5883 5881 5881 5882 5882 5882 5881 5879 5877 5876 5876 5877 5877
5873 5872 5872 5873 5874 5874 5875 5878 5880 5882 5882 5883 5884 5885 5884 5884 5883 5883 5884 5886 5888 5892 5894 5894 5891 5885 5882 5883 5885 5886 5887 5887 5887 5888 5888 5887 5887 5887 5887 5887 5887 5887 5887 5887 5887 5886 5885 5885 5884 5884 5884 5883 5883 5883 5883 5883 5883 5883 5880 5878 5877 5877 5877 5877 5877 5877 5876 5876 5875 5873 5871 5870 5871 5871
5866 5867 5867 5868 5868 5868 5870 5872 5874 5875 5876 5878 5879 5881 5881 5880 5879 5879 5880 5882 5885 5886 5887 5888 5885 5879 5875 5877 5879 5880 5881 5881 5881 5882 5882 5881 5881 5881 5881 5881 5881 5880 5880 5881 5881 5880 5880 5880 5879 5878 5877 5877 5878 5878 5877 5878 5880 5880 5877 5873 5870 5870 5871 5872 5872 5871 5871 5870 5868 5867 5865 5864 5864 5864
5860 5861 5861 5862 5862 5863 5864 5866 5868 5869 5871 5872 5873 5875 5876 5876 5875 5875 5875 5878 5880 5881 5881 5880 5877 5870 5867 5870 5873 5873 5874 5875 5875 5875 5875 5874 5874 5874 5874 5874 5874 5873 5873 5874 5874 5874 5875 5874 5873 5871 5870 5871 5872 5873 5873 5873 5875 5875 5874 5871 5867 5864 5864 5865 5865 5865 5865 5864 5863 5861 5860 5859 5858 5858
5853 5854 5855 5856 5856 5857 5858 5860 5862 5864 5865 5866 5866 5868 5869 5870 5869 5869 5870 5872 5874 5873 5871 5869 5867 5863 5861 5863 5865 5865 5865 5866 5867 5867 5867 5867 5867 5868 5868 5868 5868 5867 5867 5867 5868 5868 5868 5867 5866 5866 5865 5864 5866 5867 5867 5867 5867 5867 5867 5866 5864 5861 5860 5859 5858 5858 5858 5858 5857 5856 5855 5853 5852 5851
5845 5847 5849 5850 5850 5851 5852 5854 5856 5857 5858 5859 5859 5860 5861 5861 5860 5861 5862 5864 5865 5864 5860 5858 5858 5858 5857 5857 5855 5854 5855 5857 5858 5858 5858 5858 5858 5858 5859 5859 5860 5860 5859 5860 5861 5862 5861 5860 5859 5859 5859 5859 5859 5860 5861 5861 5860 5859 5858 5858 5858 5857 5855 5853 5852 5852 5852 5852 5851 5851 5849 5847 5846 5846
5837 5839 5841 5843 5844 5844 5845 5847 5849 5850 5851 5851 5852 5853 5852 5852 5854 5856 5858 5859 5860 5858 5855 5852 5852 5851 5850 5850 5850 5851 5854 5859 5860 5859 5859 5857 5856 5856 5856 5855 5855 5854 5854 5854 5855 5856 5855 5854 5853 5852 5852 5853 5853 5853 5853 5854 5854 5852 5851 5850 5850 5850 5849 5847 5845 5845 5845 5845 5845 5844 5841 5839 5838 5839
5829 5831 5833 5835 5836 5837 5837 5839 5840 5842 5843 5844 5845 5845 5844 5845 5849 5854 5855 5855 5856 5854 5850 5846 5846 5847 5848 5849 5852 5855 5858 5860 5860 5859 5858 5857 5855 5855 5854 5852 5850 5851 5852 5853 5853 5853 5851 5849 5846 5845 5846 5847 5847 5845 5845 5846 5845 5844 5843 5843 5844 5844 5842 5839 5837 5837 5837 5838 5839 5838 5835 5832 5831 5832
5821 5823 5825 5826 5828 5829 5829 5830 5832 5834 5835 5835 5836 5836 5835 5837 5841 5845 5845 5845 5847 5846 5842 5838 5839 5843 5846 5848 5851 5853 5853 5852 5851 5849 5848 5848 5849 5851 5850 5848 5845 5845 5847 5849 5849 5847 5846 5844 5841 5839 5839 5840 5840 5839 5839 5839 5838 5838 5837 5836 5837 5837 5835 5832 5831 5829 5829 5831 5831 5830 5827 5825 5824 5824